Location: Freistadt
(48.5112°N, 14.5013°E)
Time: 09:35:39
(UTC+02:00)

PCSat - Pass Details

Date: 27 March 2023
Orbit: 783 x 794 km, 67.1° (Epoch: 29 May)

Event Time Altitude Azimuth Distance (km) Brightness Sun altitude
Rises 20:46:36 0° 292° (WNW) 3,287 14.8 -14.0°
Reaches altitude 10° 20:50:43 10° 322° (NW) 2,363 13.0 -14.6°
Maximum altitude 20:52:51 12° 346° (NNW) 2,212 12.4 -15.0°
Drops below altitude 10° 20:54:59 10° 9° (N) 2,367 12.2 -15.3°
Sets 20:59:07 0° 39° (NE) 3,301 12.6 -15.9°
